Flag for Germany Weather past 2 weeks in Melsungen, Hesse, Germany

Now
50 °F

Cool.


Feels Like: 50 °F
Forecast: 41 / 56 °F
Wind: 2 mph from South

Location: Fritzlar

Current Time: Oct 23, 2014 at 8:56:47 PM

Latest Report: Oct 23, 2014 at 8:00 PM


Visibility: 8 mi

Pressure: 30.24 "Hg

Humidity: 84%

Dew point: 46 °F

Location of MelsungenLocation

Historic Weather in Melsungen — Graph

°F

Melsungen temperature yesterday

Maximum temperature yesterday: 50 °F (at 5:00 PM)
Minimum temperature yesterday: 43 °F (at 5:00 AM)
Average temperature yesterday: 47 °F

Past Weeks' High & Low Weather Summary

 TemperatureHumidityPressure
High66 °F (Oct 19, 5:00 PM)99% (Oct 12, 9:00 AM)30.24 "Hg (Oct 12, 9:00 AM)
Low43 °F (Oct 22, 5:00 AM)62% (Oct 23, 2:00 PM)29.50 "Hg (Oct 21, 6:00 PM)
Average55 °F87%29.91 "Hg
* Reported Oct 8 7:00 PM — Oct 23 7:00 PM, Melsungen, Weather by CustomWeather, © 2014

Note: Actual official high and low records may vary slightly from our data, if they occured in-between our weather recording intervals... More about our weather records

Advertising

Melsungen weather history for previous 24 hours

 ConditionsComfort  
Time TempWeatherWind HumidityBarometerVisibility
7:00 PM
Oct 23
49 °FCool.2 mph85%30.23 "Hg8 mi
6:00 PM52 °FCool.2 mph79%30.22 "Hg11 mi
5:00 PM54 °FCool.N/A69%30.22 "Hg11 mi
4:00 PM54 °FCool.3 mph70%30.23 "Hg14 mi
3:00 PM54 °FCool.3 mph68%30.22 "Hg13 mi
2:00 PM54 °FCool.2 mph62%30.23 "Hg13 mi
1:00 PM53 °FCool.3 mph64%30.24 "Hg12 mi
12:00 PM52 °FCool.3 mph67%30.24 "Hg12 mi
11:00 AM51 °FCool.3 mph73%30.23 "Hg7 mi
10:00 AM48 °FCool.N/A78%30.23 "Hg8 mi
9:00 AM46 °FCool.1 mph79%30.22 "Hg9 mi
8:00 AM46 °FCool.5 mph78%30.19 "Hg9 mi
7:00 AM48 °FCool.5 mph77%30.18 "Hg9 mi
6:00 AM48 °FCool.5 mph79%30.17 "Hg9 mi
5:00 AM48 °FCool.3 mph77%30.15 "Hg9 mi
4:00 AM48 °FCool.3 mph72%30.15 "Hg10 mi
3:00 AM48 °FCool.6 mph68%30.13 "Hg11 mi
2:00 AM49 °FCool.8 mph66%30.11 "Hg11 mi
1:00 AM48 °FCool.7 mph69%30.11 "Hg10 mi
12:00 AM49 °FCool.7 mph69%30.11 "Hg9 mi
11:00 PM
Oct 22
48 °FCool.6 mph70%30.10 "Hg9 mi
10:00 PM49 °FCool.6 mph70%30.08 "Hg9 mi
9:00 PM49 °FCool.8 mph70%30.05 "Hg9 mi
8:00 PM49 °FCool.8 mph69%30.02 "Hg9 mi
Weather by CustomWeather, © 2014

See weather overviewHow to use our weather pages